N314RS KIGM-KLIT

Flight info

Callsign N314RS
Flight time 2h 13m
Altitude 45000
Route CADDU J8 FTI J58 PNH J14 LIT
Aircraft C750/M-SBDE3FGHRWXY/S

Departure

Time 2026-04-19 23:54
Airport Kingman Airport (KIGM)

Arrival

Time 2026-04-20 02:07
Airport Bill & Hillary Clinton National Airport/Adams Field (KLIT)
Time Latitude Longitude Altitude Speed Heading
2026-04-19 23:36 35.25426 -113.94922 3365 ft 0 kts 360°
2026-04-19 23:46 35.25423 -113.94922 3417 ft 1 kts 360°
2026-04-19 23:46 35.25416 -113.94922 3417 ft 1 kts 359°
2026-04-19 23:46 35.25410 -113.94922 3417 ft 1 kts 359°
2026-04-19 23:47 35.25403 -113.94923 3417 ft 1 kts 16°
2026-04-19 23:47 35.25400 -113.94924 3417 ft 0 kts 26°
2026-04-19 23:47 35.25404 -113.94920 3417 ft 2 kts 41°
2026-04-19 23:48 35.25405 -113.94885 3416 ft 6 kts 98°
2026-04-19 23:48 35.25396 -113.94813 3416 ft 11 kts 98°
2026-04-19 23:48 35.25430 -113.94721 3415 ft 15 kts 44°
2026-04-19 23:48 35.25511 -113.94622 3414 ft 18 kts 45°
2026-04-19 23:49 35.25612 -113.94500 3413 ft 22 kts 44°
2026-04-19 23:49 35.25728 -113.94357 3412 ft 26 kts 45°
2026-04-19 23:49 35.25865 -113.94191 3410 ft 28 kts 45°
2026-04-19 23:49 35.26002 -113.94024 3408 ft 27 kts 45°
2026-04-19 23:50 35.26132 -113.93864 3405 ft 26 kts 45°
2026-04-19 23:50 35.26259 -113.93707 3401 ft 26 kts 46°
2026-04-19 23:50 35.26386 -113.93552 3396 ft 26 kts 45°
2026-04-19 23:50 35.26508 -113.93402 3396 ft 22 kts 41°
2026-04-19 23:51 35.26540 -113.93307 3399 ft 9 kts 127°
2026-04-19 23:51 35.26522 -113.93284 3400 ft 0 kts 135°
2026-04-19 23:53 35.26519 -113.93281 3400 ft 2 kts 135°
2026-04-19 23:53 35.26495 -113.93252 3402 ft 8 kts 136°
2026-04-19 23:53 35.26453 -113.93227 3403 ft 8 kts 195°
2026-04-19 23:53 35.26395 -113.93292 3404 ft 24 kts 225°
2026-04-19 23:54 35.26037 -113.93727 3406 ft 117 kts 225°
2026-04-19 23:54 35.25378 -113.94540 3718 ft 138 kts 227°
2026-04-19 23:54 35.24699 -113.95410 4365 ft 145 kts 226°
2026-04-19 23:54 35.23967 -113.96260 4920 ft 151 kts 224°
2026-04-19 23:55 35.23141 -113.97190 5267 ft 173 kts 224°
2026-04-19 23:55 35.22220 -113.98276 5634 ft 197 kts 224°
2026-04-19 23:55 35.20979 -113.99198 5875 ft 229 kts 194°
2026-04-19 23:55 35.19308 -113.98929 6084 ft 264 kts 157°
2026-04-19 23:56 35.17963 -113.97311 6613 ft 282 kts 120°
2026-04-19 23:56 35.17511 -113.94992 7630 ft 281 kts 98°
2026-04-19 23:56 35.17349 -113.92615 8710 ft 279 kts 98°
2026-04-19 23:56 35.17017 -113.90333 9602 ft 267 kts 105°
2026-04-19 23:57 35.16497 -113.88063 9990 ft 286 kts 108°
2026-04-19 23:57 35.15949 -113.85653 10370 ft 307 kts 106°
2026-04-19 23:57 35.15439 -113.83038 10458 ft 334 kts 104°
2026-04-19 23:57 35.14896 -113.80193 10835 ft 348 kts 105°
2026-04-19 23:58 35.14313 -113.77331 11680 ft 347 kts 106°
2026-04-19 23:58 35.13717 -113.74453 12351 ft 352 kts 106°
2026-04-19 23:58 35.13126 -113.71542 13112 ft 354 kts 105°
2026-04-19 23:58 35.12537 -113.68612 13827 ft 357 kts 105°
2026-04-19 23:59 35.11938 -113.65660 14459 ft 360 kts 105°
2026-04-19 23:59 35.11326 -113.62672 15042 ft 365 kts 105°
2026-04-19 23:59 35.10710 -113.59653 15668 ft 368 kts 105°
2026-04-19 23:59 35.10088 -113.56602 16282 ft 373 kts 106°
2026-04-20 00:00 35.09455 -113.53511 16895 ft 378 kts 106°
2026-04-20 00:00 35.08815 -113.50386 17560 ft 382 kts 106°
2026-04-20 00:00 35.08165 -113.47218 18229 ft 387 kts 106°
2026-04-20 00:00 35.07508 -113.44018 18824 ft 391 kts 106°
2026-04-20 00:01 35.06843 -113.40784 19461 ft 395 kts 106°
2026-04-20 00:01 35.06170 -113.37518 20114 ft 398 kts 106°
2026-04-20 00:01 35.04804 -113.30899 21425 ft 406 kts 107°
2026-04-20 00:02 35.04109 -113.27542 22063 ft 410 kts 107°
2026-04-20 00:02 35.03407 -113.24154 22719 ft 414 kts 107°
2026-04-20 00:02 35.02696 -113.20734 23364 ft 417 kts 107°
2026-04-20 00:02 35.01990 -113.17336 23879 ft 421 kts 107°
2026-04-20 00:03 35.01265 -113.13857 24378 ft 425 kts 107°
2026-04-20 00:03 35.00533 -113.10343 24877 ft 429 kts 107°
2026-04-20 00:03 34.99792 -113.06797 25381 ft 433 kts 107°
2026-04-20 00:03 34.99044 -113.03219 25880 ft 437 kts 107°
2026-04-20 00:04 34.98306 -112.99611 26376 ft 442 kts 105°
2026-04-20 00:04 34.98115 -112.95833 26735 ft 454 kts 88°
2026-04-20 00:04 34.98561 -112.92013 27346 ft 456 kts 83°
2026-04-20 00:04 34.99097 -112.88228 27824 ft 461 kts 82°
2026-04-20 00:05 34.99649 -112.84363 28305 ft 465 kts 83°
2026-04-20 00:05 35.00160 -112.80454 28780 ft 469 kts 83°
2026-04-20 00:05 35.00665 -112.76508 29248 ft 473 kts 83°
2026-04-20 00:05 35.01199 -112.72529 29738 ft 477 kts 82°
2026-04-20 00:06 35.01747 -112.68528 30167 ft 481 kts 82°
2026-04-20 00:06 35.02282 -112.64486 30567 ft 484 kts 83°
2026-04-20 00:06 35.02811 -112.60415 30991 ft 487 kts 83°
2026-04-20 00:06 35.03347 -112.56349 31615 ft 485 kts 83°
2026-04-20 00:07 35.03880 -112.52347 32183 ft 485 kts 84°
2026-04-20 00:07 35.04413 -112.48286 32727 ft 485 kts 84°
2026-04-20 00:07 35.04940 -112.44224 33277 ft 485 kts 84°
2026-04-20 00:07 35.05470 -112.40159 33874 ft 485 kts 84°
2026-04-20 00:08 35.06000 -112.36099 34356 ft 485 kts 85°
2026-04-20 00:08 35.06529 -112.32018 34731 ft 488 kts 84°
2026-04-20 00:08 35.07059 -112.27911 35135 ft 491 kts 84°
2026-04-20 00:08 35.07591 -112.23786 35517 ft 494 kts 84°
2026-04-20 00:09 35.08127 -112.19636 35927 ft 496 kts 84°
2026-04-20 00:09 35.08655 -112.15521 36327 ft 499 kts 84°
2026-04-20 00:09 35.09190 -112.11329 36741 ft 501 kts 84°
2026-04-20 00:09 35.09721 -112.07170 37160 ft 504 kts 84°
2026-04-20 00:10 35.10269 -112.02877 37619 ft 506 kts 84°
2026-04-20 00:10 35.10808 -111.98625 38059 ft 508 kts 84°
2026-04-20 00:10 35.11349 -111.94348 38494 ft 511 kts 83°
2026-04-20 00:10 35.11892 -111.90043 38915 ft 513 kts 83°
2026-04-20 00:11 35.12435 -111.85726 39301 ft 514 kts 83°
2026-04-20 00:11 35.12977 -111.81409 39728 ft 515 kts 83°
2026-04-20 00:11 35.13517 -111.77088 40149 ft 515 kts 83°
2026-04-20 00:11 35.14049 -111.72820 40555 ft 515 kts 83°
2026-04-20 00:12 35.14587 -111.68491 40959 ft 515 kts 83°
2026-04-20 00:12 35.15128 -111.64166 41367 ft 516 kts 83°
2026-04-20 00:12 35.15692 -111.59838 41795 ft 516 kts 82°
2026-04-20 00:12 35.16262 -111.55516 42202 ft 515 kts 82°
2026-04-20 00:13 35.16816 -111.51182 42567 ft 516 kts 82°
2026-04-20 00:13 35.17361 -111.46844 42936 ft 517 kts 82°
2026-04-20 00:13 35.17913 -111.42506 43311 ft 517 kts 82°
2026-04-20 00:13 35.18470 -111.38169 43665 ft 517 kts 82°
2026-04-20 00:14 35.19014 -111.33885 44005 ft 517 kts 82°
2026-04-20 00:14 35.19560 -111.29538 44348 ft 518 kts 82°
2026-04-20 00:14 35.20107 -111.25185 44671 ft 518 kts 82°
2026-04-20 00:14 35.20656 -111.20826 44948 ft 519 kts 82°
2026-04-20 00:15 35.21205 -111.16446 45000 ft 525 kts 82°
2026-04-20 00:15 35.22320 -111.07491 44999 ft 540 kts 82°
2026-04-20 00:16 35.23458 -110.98305 45017 ft 552 kts 82°
2026-04-20 00:16 35.24598 -110.89044 45030 ft 553 kts 82°
2026-04-20 00:17 35.25735 -110.79742 45032 ft 553 kts 82°
2026-04-20 00:17 35.26867 -110.70421 45026 ft 554 kts 82°
2026-04-20 00:18 35.27992 -110.61098 45018 ft 554 kts 82°
2026-04-20 00:18 35.29110 -110.51766 44997 ft 554 kts 82°
2026-04-20 00:19 35.30213 -110.42501 44983 ft 554 kts 82°
2026-04-20 00:19 35.31318 -110.33155 44990 ft 554 kts 82°
2026-04-20 00:20 35.32415 -110.23821 44988 ft 555 kts 82°
2026-04-20 00:20 35.33505 -110.14470 44993 ft 554 kts 82°
2026-04-20 00:21 35.34587 -110.05132 44992 ft 554 kts 82°
2026-04-20 00:21 35.35656 -109.95848 44998 ft 555 kts 82°
2026-04-20 00:22 35.36724 -109.86492 44995 ft 555 kts 82°
2026-04-20 00:22 35.37787 -109.77131 44999 ft 555 kts 82°
2026-04-20 00:23 35.38841 -109.67772 44999 ft 555 kts 82°
2026-04-20 00:23 35.39881 -109.58471 44995 ft 555 kts 82°
2026-04-20 00:24 35.40922 -109.49095 44997 ft 555 kts 82°
2026-04-20 00:24 35.41956 -109.39725 44997 ft 555 kts 82°
2026-04-20 00:25 35.42982 -109.30347 45043 ft 555 kts 82°
2026-04-20 00:25 35.44001 -109.20965 45077 ft 555 kts 82°
2026-04-20 00:26 35.45007 -109.11639 45103 ft 555 kts 82°
2026-04-20 00:26 35.46011 -109.02258 45108 ft 555 kts 82°
2026-04-20 00:27 35.47010 -108.92862 45149 ft 556 kts 82°
2026-04-20 00:27 35.47869 -108.83453 45161 ft 555 kts 85°
2026-04-20 00:28 35.48425 -108.74072 45166 ft 555 kts 86°
2026-04-20 00:28 35.49043 -108.64621 45150 ft 556 kts 85°
2026-04-20 00:29 35.49613 -108.55170 45105 ft 555 kts 86°
2026-04-20 00:29 35.50199 -108.45715 45062 ft 556 kts 85°
2026-04-20 00:30 35.50766 -108.36251 45030 ft 556 kts 86°
2026-04-20 00:30 35.51327 -108.26854 45034 ft 556 kts 86°
2026-04-20 00:31 35.51883 -108.17381 45044 ft 556 kts 86°
2026-04-20 00:31 35.52432 -108.07910 45045 ft 556 kts 86°
2026-04-20 00:32 35.52971 -107.98490 45045 ft 557 kts 86°
2026-04-20 00:32 35.53506 -107.89008 45050 ft 557 kts 86°
2026-04-20 00:33 35.54035 -107.79521 45055 ft 557 kts 86°
2026-04-20 00:33 35.54556 -107.70026 45069 ft 558 kts 86°
2026-04-20 00:34 35.55069 -107.60529 45076 ft 557 kts 86°
2026-04-20 00:34 35.55572 -107.51096 45081 ft 558 kts 86°
2026-04-20 00:35 35.56071 -107.41591 45085 ft 558 kts 86°
2026-04-20 00:35 35.56562 -107.32090 45081 ft 558 kts 86°
2026-04-20 00:36 35.57047 -107.22581 45084 ft 558 kts 86°
2026-04-20 00:36 35.57520 -107.13128 45085 ft 558 kts 86°
2026-04-20 00:37 35.57990 -107.03614 45089 ft 559 kts 86°
2026-04-20 00:37 35.58452 -106.94099 45087 ft 558 kts 86°
2026-04-20 00:38 35.58907 -106.84569 45085 ft 559 kts 86°
2026-04-20 00:38 35.59355 -106.75039 45081 ft 558 kts 86°
2026-04-20 00:39 35.59792 -106.65576 45077 ft 559 kts 86°
2026-04-20 00:39 35.60224 -106.56052 45064 ft 558 kts 86°
2026-04-20 00:40 35.60645 -106.46524 45086 ft 558 kts 86°
2026-04-20 00:40 35.61061 -106.36998 45140 ft 559 kts 86°
2026-04-20 00:41 35.61466 -106.27511 45185 ft 560 kts 86°
2026-04-20 00:41 35.61868 -106.17965 45228 ft 559 kts 86°
2026-04-20 00:42 35.62261 -106.08416 45227 ft 560 kts 86°
2026-04-20 00:42 35.62647 -105.98854 45224 ft 560 kts 86°
2026-04-20 00:43 35.63025 -105.89297 45187 ft 560 kts 86°
2026-04-20 00:43 35.63394 -105.79793 45150 ft 560 kts 86°
2026-04-20 00:44 35.63759 -105.70200 45114 ft 562 kts 86°
2026-04-20 00:44 35.64116 -105.60613 45099 ft 560 kts 87°
2026-04-20 00:45 35.64464 -105.51038 45130 ft 561 kts 87°
2026-04-20 00:45 35.64807 -105.41425 45171 ft 563 kts 87°
2026-04-20 00:46 35.65139 -105.31896 45207 ft 561 kts 87°
2026-04-20 00:46 35.65465 -105.22313 45229 ft 562 kts 87°
2026-04-20 00:47 35.65657 -105.12715 45213 ft 562 kts 93°
2026-04-20 00:47 35.64638 -105.03200 45246 ft 562 kts 100°
2026-04-20 00:48 35.63575 -104.93746 45206 ft 562 kts 97°
2026-04-20 00:48 35.62571 -104.84223 45166 ft 562 kts 99°
2026-04-20 00:49 35.61466 -104.74712 45121 ft 562 kts 98°
2026-04-20 00:49 35.60444 -104.65186 45098 ft 563 kts 98°
2026-04-20 00:50 35.59335 -104.55667 45099 ft 563 kts 98°
2026-04-20 00:50 35.58288 -104.46205 45091 ft 563 kts 98°
2026-04-20 00:51 35.57180 -104.36691 45097 ft 563 kts 98°
2026-04-20 00:51 35.56097 -104.27170 45098 ft 563 kts 98°
2026-04-20 00:52 35.54985 -104.17648 45103 ft 563 kts 98°
2026-04-20 00:52 35.53885 -104.08193 45102 ft 564 kts 98°
2026-04-20 00:53 35.52763 -103.98672 45103 ft 563 kts 98°
2026-04-20 00:53 35.51636 -103.89149 45106 ft 564 kts 98°
2026-04-20 00:54 35.50501 -103.79628 45104 ft 564 kts 99°
2026-04-20 00:54 35.49358 -103.70110 45110 ft 564 kts 99°
2026-04-20 00:55 35.48213 -103.60642 45119 ft 564 kts 99°
2026-04-20 00:55 35.47055 -103.51123 45120 ft 564 kts 99°
2026-04-20 00:56 35.45888 -103.41602 45121 ft 565 kts 99°
2026-04-20 00:56 35.44714 -103.32081 45113 ft 565 kts 99°
2026-04-20 00:57 35.43538 -103.22609 45119 ft 565 kts 99°
2026-04-20 00:57 35.42347 -103.13078 45125 ft 566 kts 99°
2026-04-20 00:58 35.41148 -103.03551 45139 ft 566 kts 99°
2026-04-20 00:58 35.39941 -102.94017 45150 ft 566 kts 99°
2026-04-20 00:59 35.38734 -102.84548 45156 ft 566 kts 99°
2026-04-20 00:59 35.37511 -102.75013 45164 ft 566 kts 99°
2026-04-20 01:00 35.36279 -102.65471 45173 ft 567 kts 99°
2026-04-20 01:00 35.35041 -102.55941 45174 ft 567 kts 99°
2026-04-20 01:01 35.33802 -102.46464 45182 ft 568 kts 99°
2026-04-20 01:01 35.32546 -102.36919 45182 ft 567 kts 99°
2026-04-20 01:02 35.31284 -102.27387 45186 ft 567 kts 99°
2026-04-20 01:02 35.30016 -102.17864 45194 ft 567 kts 99°
2026-04-20 01:03 35.28738 -102.08330 45198 ft 568 kts 99°
2026-04-20 01:03 35.27461 -101.98865 45214 ft 568 kts 99°
2026-04-20 01:04 35.26167 -101.89323 45230 ft 568 kts 99°
2026-04-20 01:04 35.24865 -101.79793 45246 ft 568 kts 99°
2026-04-20 01:05 35.23657 -101.70245 45220 ft 569 kts 94°
2026-04-20 01:05 35.23734 -101.62235 45237 ft 566 kts 84°
2026-04-20 01:06 35.24462 -101.51071 45240 ft 567 kts 86°
2026-04-20 01:06 35.24751 -101.41425 45234 ft 567 kts 84°
2026-04-20 01:07 35.25216 -101.33424 45233 ft 567 kts 84°
2026-04-20 01:07 35.25567 -101.23770 45223 ft 568 kts 85°
2026-04-20 01:08 35.26096 -101.12561 45217 ft 568 kts 85°
2026-04-20 01:08 35.26405 -101.04538 45222 ft 568 kts 85°
2026-04-20 01:09 35.26812 -100.94885 45220 ft 568 kts 85°
2026-04-20 01:09 35.27203 -100.85225 45226 ft 569 kts 85°
2026-04-20 01:10 35.27648 -100.73992 45230 ft 568 kts 85°
2026-04-20 01:10 35.28144 -100.61064 45235 ft 569 kts 85°
2026-04-20 01:11 35.28512 -100.51454 45237 ft 569 kts 85°
2026-04-20 01:11 35.28866 -100.41780 45240 ft 569 kts 85°
2026-04-20 01:12 35.29218 -100.32089 45237 ft 570 kts 85°
2026-04-20 01:12 35.29560 -100.22392 45236 ft 570 kts 85°
2026-04-20 01:13 35.29894 -100.12694 45233 ft 571 kts 85°
2026-04-20 01:13 35.30206 -100.03053 45232 ft 571 kts 85°
2026-04-20 01:14 35.30529 -99.93340 45237 ft 571 kts 85°
2026-04-20 01:14 35.30864 -99.83620 45238 ft 571 kts 86°
2026-04-20 01:15 35.31148 -99.73904 45240 ft 571 kts 85°
2026-04-20 01:15 35.31461 -99.64176 45242 ft 572 kts 85°
2026-04-20 01:16 35.31738 -99.54448 45242 ft 572 kts 85°
2026-04-20 01:16 35.32026 -99.44790 45244 ft 572 kts 85°
2026-04-20 01:17 35.32294 -99.35056 45236 ft 572 kts 85°
2026-04-20 01:17 35.32564 -99.25329 45262 ft 572 kts 85°
2026-04-20 01:18 35.32819 -99.15606 45266 ft 572 kts 85°
2026-04-20 01:18 35.33069 -99.05937 45261 ft 572 kts 85°
2026-04-20 01:19 35.33311 -98.96197 45264 ft 572 kts 85°
2026-04-20 01:19 35.33547 -98.86463 45262 ft 572 kts 85°
2026-04-20 01:20 35.33772 -98.76723 45264 ft 572 kts 86°
2026-04-20 01:20 35.33991 -98.66978 45266 ft 572 kts 86°
2026-04-20 01:21 35.34200 -98.57294 45268 ft 573 kts 86°
2026-04-20 01:21 35.34403 -98.47547 45263 ft 573 kts 86°
2026-04-20 01:22 35.34598 -98.37792 45260 ft 573 kts 86°
2026-04-20 01:22 35.34785 -98.28042 45265 ft 573 kts 86°
2026-04-20 01:23 35.34965 -98.18275 45274 ft 573 kts 86°
2026-04-20 01:23 35.35135 -98.08574 45276 ft 574 kts 86°
2026-04-20 01:24 35.35299 -97.98805 45279 ft 574 kts 86°
2026-04-20 01:24 35.35456 -97.89029 45268 ft 574 kts 86°
2026-04-20 01:25 35.35604 -97.79249 45270 ft 574 kts 86°
2026-04-20 01:25 35.35744 -97.69528 45274 ft 575 kts 86°
2026-04-20 01:26 35.35758 -97.59738 45244 ft 577 kts 92°
2026-04-20 01:26 35.34731 -97.49976 45279 ft 579 kts 97°
2026-04-20 01:27 35.33718 -97.40203 45262 ft 578 kts 94°
2026-04-20 01:27 35.32719 -97.30420 45263 ft 579 kts 96°
2026-04-20 01:28 35.31669 -97.20716 45269 ft 579 kts 95°
2026-04-20 01:28 35.30664 -97.10938 45275 ft 579 kts 96°
2026-04-20 01:29 35.29591 -97.01161 45274 ft 580 kts 96°
2026-04-20 01:29 35.28562 -96.91377 45268 ft 580 kts 96°
2026-04-20 01:30 35.27482 -96.81592 45269 ft 580 kts 96°
2026-04-20 01:30 35.26432 -96.71862 45270 ft 581 kts 96°
2026-04-20 01:31 35.25344 -96.62071 45273 ft 581 kts 96°
2026-04-20 01:31 35.24263 -96.52276 45278 ft 581 kts 96°
2026-04-20 01:32 35.23165 -96.42486 45274 ft 581 kts 96°
2026-04-20 01:32 35.22064 -96.32692 45284 ft 582 kts 96°
2026-04-20 01:33 35.20960 -96.22969 45295 ft 581 kts 96°
2026-04-20 01:33 35.19842 -96.13176 45297 ft 582 kts 96°
2026-04-20 01:34 35.18717 -96.03381 45290 ft 581 kts 96°
2026-04-20 01:34 35.17583 -95.93598 45292 ft 582 kts 96°
2026-04-20 01:35 35.16442 -95.83807 45298 ft 582 kts 96°
2026-04-20 01:35 35.15300 -95.74085 45295 ft 582 kts 96°
2026-04-20 01:36 35.14143 -95.64304 45299 ft 582 kts 96°
2026-04-20 01:36 35.12978 -95.54528 45299 ft 582 kts 96°
2026-04-20 01:37 35.11803 -95.44746 45299 ft 582 kts 97°
2026-04-20 01:37 35.10498 -95.34995 45278 ft 582 kts 98°
2026-04-20 01:38 35.09219 -95.25236 45276 ft 582 kts 97°
2026-04-20 01:38 35.07933 -95.15552 45286 ft 582 kts 98°
2026-04-20 01:39 35.06624 -95.05802 45276 ft 582 kts 97°
2026-04-20 01:39 35.05322 -94.96063 45272 ft 581 kts 98°
2026-04-20 01:40 35.03997 -94.86333 45286 ft 582 kts 98°
2026-04-20 01:40 35.02686 -94.76662 45287 ft 582 kts 98°
2026-04-20 01:41 35.01460 -94.66906 45266 ft 581 kts 92°
2026-04-20 01:41 35.01354 -94.57180 44211 ft 569 kts 85°
2026-04-20 01:42 35.01396 -94.52391 43501 ft 562 kts 87°
2026-04-20 01:42 35.01313 -94.47649 42778 ft 556 kts 89°
2026-04-20 01:42 35.01199 -94.42972 42054 ft 549 kts 88°
2026-04-20 01:42 35.01164 -94.38404 41351 ft 543 kts 87°
2026-04-20 01:43 35.01167 -94.33818 40643 ft 539 kts 87°
2026-04-20 01:43 35.01120 -94.29256 39946 ft 539 kts 88°
2026-04-20 01:43 35.01033 -94.24680 39243 ft 540 kts 89°
2026-04-20 01:43 35.00971 -94.20088 38450 ft 543 kts 88°
2026-04-20 01:44 35.00938 -94.15484 37753 ft 542 kts 88°
2026-04-20 01:44 35.00890 -94.10890 37039 ft 542 kts 88°
2026-04-20 01:44 35.00817 -94.06299 36323 ft 542 kts 88°
2026-04-20 01:44 35.00747 -94.01704 35610 ft 541 kts 88°
2026-04-20 01:45 35.00692 -93.97122 34895 ft 540 kts 88°
2026-04-20 01:45 35.00637 -93.92606 34169 ft 538 kts 88°
2026-04-20 01:45 35.00568 -93.88052 33410 ft 536 kts 88°
2026-04-20 01:45 35.00495 -93.83517 32709 ft 535 kts 88°
2026-04-20 01:46 35.00428 -93.78973 31992 ft 538 kts 88°
2026-04-20 01:46 35.00363 -93.74399 31285 ft 540 kts 88°
2026-04-20 01:46 35.00290 -93.69812 30576 ft 541 kts 88°
2026-04-20 01:46 35.00210 -93.65249 29811 ft 534 kts 88°
2026-04-20 01:47 35.00134 -93.60761 29108 ft 526 kts 88°
2026-04-20 01:47 35.00063 -93.56381 28433 ft 520 kts 88°
2026-04-20 01:47 34.99990 -93.51999 27743 ft 515 kts 88°
2026-04-20 01:47 34.99911 -93.47657 27066 ft 509 kts 88°
2026-04-20 01:48 34.99831 -93.43369 26396 ft 503 kts 88°
2026-04-20 01:48 34.99754 -93.39126 25735 ft 497 kts 88°
2026-04-20 01:48 34.99677 -93.34930 25088 ft 492 kts 88°
2026-04-20 01:48 34.99598 -93.30780 24438 ft 487 kts 88°
2026-04-20 01:49 34.99517 -93.26679 23786 ft 482 kts 88°
2026-04-20 01:49 34.99437 -93.22625 23108 ft 474 kts 88°
2026-04-20 01:49 34.99357 -93.18635 22491 ft 467 kts 88°
2026-04-20 01:49 34.99279 -93.14697 21877 ft 462 kts 88°
2026-04-20 01:50 34.99199 -93.10854 21281 ft 456 kts 88°
2026-04-20 01:50 34.99116 -93.07010 20681 ft 450 kts 88°
2026-04-20 01:50 34.99036 -93.03219 20089 ft 445 kts 88°
2026-04-20 01:50 34.98956 -92.99466 19507 ft 440 kts 89°
2026-04-20 01:51 34.98875 -92.95770 18932 ft 434 kts 89°
2026-04-20 01:51 34.98793 -92.92119 18331 ft 428 kts 89°
2026-04-20 01:51 34.98712 -92.88525 17763 ft 422 kts 89°
2026-04-20 01:51 34.98631 -92.84961 17203 ft 418 kts 89°
2026-04-20 01:52 34.98550 -92.81488 16661 ft 413 kts 89°
2026-04-20 01:52 34.98468 -92.78014 16119 ft 408 kts 89°
2026-04-20 01:52 34.98387 -92.74580 15582 ft 403 kts 89°
2026-04-20 01:52 34.98306 -92.71176 15051 ft 399 kts 89°
2026-04-20 01:53 34.98224 -92.67818 14524 ft 394 kts 89°
2026-04-20 01:53 34.98143 -92.64480 13756 ft 396 kts 89°
2026-04-20 01:53 34.98060 -92.61170 13182 ft 385 kts 89°
2026-04-20 01:53 34.97978 -92.57940 12671 ft 379 kts 89°
2026-04-20 01:54 34.97898 -92.54730 12173 ft 378 kts 89°
2026-04-20 01:54 34.97818 -92.51583 11683 ft 376 kts 89°
2026-04-20 01:54 34.97735 -92.48421 11189 ft 366 kts 90°
2026-04-20 01:54 34.97654 -92.45400 10714 ft 347 kts 90°
2026-04-20 01:55 34.97578 -92.42529 10268 ft 331 kts 90°
2026-04-20 01:55 34.97505 -92.39782 9809 ft 318 kts 89°
2026-04-20 01:55 34.97436 -92.37146 9393 ft 305 kts 89°
2026-04-20 01:55 34.97367 -92.34600 9012 ft 296 kts 90°
2026-04-20 01:56 34.97300 -92.32138 8630 ft 286 kts 89°
2026-04-20 01:56 34.97235 -92.29757 8320 ft 274 kts 89°
2026-04-20 01:56 34.97171 -92.27490 8091 ft 262 kts 89°
2026-04-20 01:56 34.97113 -92.25333 7803 ft 252 kts 89°
2026-04-20 01:57 34.97053 -92.23255 7485 ft 241 kts 89°
2026-04-20 01:57 34.96996 -92.21240 7198 ft 237 kts 89°
2026-04-20 01:57 34.96940 -92.19231 6885 ft 236 kts 89°
2026-04-20 01:57 34.96885 -92.17242 6590 ft 234 kts 89°
2026-04-20 01:58 34.96829 -92.15259 6265 ft 234 kts 89°
2026-04-20 01:58 34.96773 -92.13287 5954 ft 231 kts 90°
2026-04-20 01:58 34.96714 -92.11327 5672 ft 232 kts 90°
2026-04-20 01:58 34.96655 -92.09350 5352 ft 233 kts 90°
2026-04-20 01:59 34.96601 -92.07413 5044 ft 230 kts 90°
2026-04-20 01:59 34.96543 -92.05469 4743 ft 230 kts 91°
2026-04-20 01:59 34.96486 -92.03524 4452 ft 230 kts 91°
2026-04-20 01:59 34.96428 -92.01556 4130 ft 233 kts 91°
2026-04-20 02:00 34.96346 -91.99601 3825 ft 227 kts 95°
2026-04-20 02:00 34.95736 -91.97903 3437 ft 218 kts 131°
2026-04-20 02:00 34.94525 -91.96882 3180 ft 212 kts 162°
2026-04-20 02:00 34.93094 -91.96713 2938 ft 205 kts 185°
2026-04-20 02:01 34.91687 -91.96820 2732 ft 202 kts 186°
2026-04-20 02:01 34.90338 -91.97296 2477 ft 208 kts 214°
2026-04-20 02:01 34.89341 -91.98466 2523 ft 191 kts 229°
2026-04-20 02:01 34.88465 -91.99679 2545 ft 195 kts 230°
2026-04-20 02:02 34.87564 -92.00914 2506 ft 188 kts 229°
2026-04-20 02:02 34.86713 -92.02071 2523 ft 185 kts 229°
2026-04-20 02:02 34.85874 -92.03218 2466 ft 173 kts 229°
2026-04-20 02:02 34.85088 -92.04298 2521 ft 175 kts 229°
2026-04-20 02:03 34.84257 -92.05449 2467 ft 185 kts 230°
2026-04-20 02:03 34.83414 -92.06606 2453 ft 184 kts 229°
2026-04-20 02:03 34.82587 -92.07719 2496 ft 174 kts 229°
2026-04-20 02:03 34.81755 -92.08859 2424 ft 187 kts 229°
2026-04-20 02:04 34.80896 -92.10039 2186 ft 184 kts 229°
2026-04-20 02:04 34.80101 -92.11125 2056 ft 155 kts 229°
2026-04-20 02:04 34.79446 -92.12024 1891 ft 135 kts 229°
2026-04-20 02:04 34.78844 -92.12876 1814 ft 131 kts 230°
2026-04-20 02:05 34.78257 -92.13718 1709 ft 131 kts 230°
2026-04-20 02:05 34.77652 -92.14569 1510 ft 133 kts 229°
2026-04-20 02:05 34.77055 -92.15426 1296 ft 132 kts 229°
2026-04-20 02:05 34.76468 -92.16280 1109 ft 130 kts 229°
2026-04-20 02:06 34.75875 -92.17090 958 ft 128 kts 227°
2026-04-20 02:06 34.75268 -92.17868 787 ft 129 kts 226°
2026-04-20 02:06 34.74651 -92.18666 618 ft 130 kts 227°
2026-04-20 02:06 34.74022 -92.19462 448 ft 131 kts 227°
2026-04-20 02:07 34.73397 -92.20264 291 ft 130 kts 227°
2026-04-20 02:07 34.72840 -92.20975 263 ft 100 kts 226°
2026-04-20 02:07 34.72523 -92.21379 267 ft 37 kts 228°
2026-04-20 02:07 34.72428 -92.21583 265 ft 19 kts 251°
2026-04-20 02:08 34.72441 -92.21696 264 ft 13 kts 340°
2026-04-20 02:08 34.72514 -92.21644 266 ft 15 kts 46°
2026-04-20 02:08 34.72604 -92.21533 266 ft 22 kts 46°
2026-04-20 02:08 34.72720 -92.21378 265 ft 24 kts 46°
2026-04-20 02:09 34.72818 -92.21295 263 ft 13 kts 340°
2026-04-20 02:09 34.72870 -92.21395 263 ft 15 kts 294°
2026-04-20 02:09 34.72914 -92.21517 264 ft 16 kts 295°
2026-04-20 02:09 34.72960 -92.21640 266 ft 16 kts 295°
2026-04-20 02:10 34.72984 -92.21701 267 ft 0 kts 294°